When you browse on this site, cookies collect data to enhance your experience and personalize the content and advertising you see.
Visit our Privacy Policy to learn more. By continuing to use the site, you agree to this use of cookies and data.
  • Em Portugal
  • Lista de países
  • Para 7 dias
  • Temperatura da água
  • Mapa do tempo
  • Widgets de tempo
  • user-avatar
    Iniciar Sessão

    Previsão horária em Podsinee

    Hoje, 7 Junho, Domingo

    Tempo Temperatura Precipitação Vento Pressão Humidade
    00:00 +8°C° 0 mm 4 m/s 740 mmHg 86%
    01:00 +8°C° 0 mm 4 m/s 740 mmHg 87%
    02:00 +7°C° 0 mm 4 m/s 740 mmHg 88%
    03:00 +7°C° 0 mm 4 m/s 739 mmHg 89%
    04:00 +7°C° 0 mm 4 m/s 740 mmHg 88%
    05:00 +8°C° 0 mm 4 m/s 740 mmHg 86%
    06:00 +9°C° 0 mm 5 m/s 740 mmHg 85%
    07:00 +10°C° 0.7 mm 4 m/s 740 mmHg 84%
    08:00 +11°C° 0.7 mm 4 m/s 739 mmHg 83%
    09:00 +12°C° 0.7 mm 4 m/s 739 mmHg 82%
    10:00 +12°C° 0.8 mm 5 m/s 739 mmHg 81%
    11:00 +12°C° 0.8 mm 5 m/s 739 mmHg 81%
    12:00 +13°C° 0.8 mm 5 m/s 739 mmHg 80%
    13:00 +13°C° 1.2 mm 6 m/s 739 mmHg 78%
    14:00 +14°C° 1.2 mm 6 m/s 739 mmHg 75%
    15:00 +15°C° 1.2 mm 7 m/s 739 mmHg 73%
    16:00 +15°C° 0.7 mm 7 m/s 739 mmHg 74%
    17:00 +14°C° 0.7 mm 6 m/s 739 mmHg 75%
    18:00 +14°C° 0.7 mm 5 m/s 739 mmHg 76%
    19:00 +13°C° 1.4 mm 5 m/s 739 mmHg 79%
    20:00 +12°C° 1.4 mm 4 m/s 739 mmHg 82%
    21:00 +11°C° 1.4 mm 3 m/s 739 mmHg 85%
    22:00 +10°C° 0.1 mm 3 m/s 739 mmHg 86%
    23:00 +9°C° 0.1 mm 2 m/s 739 mmHg 86%

    Amanhã, 8 Junho, Segunda-feira

    Tempo Temperatura Precipitação Vento Pressão Humidade
    00:00 +8°C° 0.1 mm 2 m/s 739 mmHg 86%
    01:00 +8°C° 0 mm 2 m/s 739 mmHg 86%
    02:00 +8°C° 0 mm 2 m/s 739 mmHg 86%
    03:00 +8°C° 0 mm 2 m/s 739 mmHg 86%
    04:00 +9°C° 0 mm 2 m/s 740 mmHg 82%
    05:00 +10°C° 0 mm 2 m/s 740 mmHg 79%
    06:00 +12°C° 0 mm 2 m/s 740 mmHg 76%
    07:00 +12°C° 0 mm 3 m/s 740 mmHg 69%
    08:00 +13°C° 0 mm 3 m/s 740 mmHg 62%
    09:00 +15°C° 0 mm 4 m/s 740 mmHg 55%
    10:00 +15°C° 0 mm 4 m/s 739 mmHg 52%
    11:00 +17°C° 0 mm 4 m/s 739 mmHg 49%
    12:00 +17°C° 0 mm 3 m/s 739 mmHg 47%
    13:00 +18°C° 0 mm 3 m/s 739 mmHg 47%
    14:00 +18°C° 0 mm 3 m/s 739 mmHg 48%
    15:00 +18°C° 0 mm 3 m/s 738 mmHg 48%
    16:00 +18°C° 0 mm 2 m/s 738 mmHg 52%
    17:00 +18°C° 0 mm 2 m/s 738 mmHg 56%
    18:00 +19°C° 0 mm 1 m/s 738 mmHg 60%
    19:00 +17°C° 0 mm 2 m/s 738 mmHg 63%
    20:00 +15°C° 0 mm 2 m/s 737 mmHg 66%
    21:00 +13°C° 0 mm 2 m/s 737 mmHg 69%
    22:00 +13°C° 0 mm 2 m/s 737 mmHg 69%
    23:00 +12°C° 0 mm 3 m/s 736 mmHg 69%

    Depois de amanhã, 9 Junho, Terça-feira

    Tempo Temperatura Precipitação Vento Pressão Humidade
    00:00 +12°C° 0 mm 3 m/s 736 mmHg 70%
    01:00 +12°C° 1 mm 3 m/s 735 mmHg 76%
    02:00 +12°C° 1 mm 4 m/s 734 mmHg 82%
    03:00 +11°C° 1 mm 4 m/s 733 mmHg 88%
    04:00 +10°C° 3.1 mm 5 m/s 733 mmHg 90%
    05:00 +10°C° 3.1 mm 5 m/s 733 mmHg 91%
    06:00 +10°C° 3.1 mm 5 m/s 732 mmHg 93%
    07:00 +10°C° 0.7 mm 5 m/s 733 mmHg 92%
    08:00 +12°C° 0.7 mm 5 m/s 733 mmHg 90%
    09:00 +13°C° 0.7 mm 4 m/s 733 mmHg 89%
    10:00 +13°C° 0.3 mm 5 m/s 734 mmHg 86%
    11:00 +14°C° 0.3 mm 5 m/s 735 mmHg 83%
    12:00 +15°C° 0.3 mm 5 m/s 736 mmHg 79%
    13:00 +15°C° 0.2 mm 5 m/s 736 mmHg 78%
    14:00 +15°C° 0.2 mm 4 m/s 736 mmHg 77%
    15:00 +16°C° 0.2 mm 3 m/s 736 mmHg 75%
    16:00 +16°C° 0.1 mm 3 m/s 737 mmHg 75%
    17:00 +16°C° 0.1 mm 3 m/s 737 mmHg 76%
    18:00 +16°C° 0.1 mm 2 m/s 738 mmHg 76%
    19:00 +14°C° 0.1 mm 2 m/s 738 mmHg 79%
    20:00 +13°C° 0.1 mm 1 m/s 738 mmHg 82%
    21:00 +12°C° 0.1 mm 1 m/s 739 mmHg 86%
    22:00 +12°C° 0 mm 1 m/s 739 mmHg 85%
    23:00 +11°C° 0 mm 1 m/s 739 mmHg 85%

    10 Junho, Quarta-feira

    Tempo Temperatura Precipitação Vento Pressão Humidade
    00:00 +11°C° 0 mm 1 m/s 740 mmHg 85%
    01:00 +11°C° 0 mm 1 m/s 740 mmHg 85%
    02:00 +10°C° 0 mm 1 m/s 740 mmHg 86%
    03:00 +10°C° 0 mm 1 m/s 740 mmHg 86%
    04:00 +11°C° 0 mm 1 m/s 740 mmHg 85%
    05:00 +12°C° 0 mm 1 m/s 740 mmHg 83%
    06:00 +12°C° 0 mm 1 m/s 741 mmHg 81%
    07:00 +13°C° 0 mm 1 m/s 741 mmHg 77%
    08:00 +15°C° 0 mm 2 m/s 741 mmHg 73%
    09:00 +16°C° 0 mm 2 m/s 741 mmHg 69%
    10:00 +16°C° 0 mm 2 m/s 740 mmHg 65%
    11:00 +17°C° 0 mm 2 m/s 740 mmHg 60%
    12:00 +18°C° 0 mm 2 m/s 740 mmHg 55%
    13:00 +18°C° 0 mm 2 m/s 740 mmHg 53%
    14:00 +19°C° 0 mm 2 m/s 740 mmHg 51%
    15:00 +20°C° 0 mm 1 m/s 740 mmHg 49%
    16:00 +20°C° 0 mm 1 m/s 740 mmHg 51%
    17:00 +20°C° 0 mm 1 m/s 739 mmHg 54%
    18:00 +20°C° 0 mm 1 m/s 739 mmHg 57%
    19:00 +18°C° 0 mm 1 m/s 740 mmHg 62%
    20:00 +16°C° 0 mm 1 m/s 740 mmHg 66%
    21:00 +14°C° 0 mm 1 m/s 740 mmHg 71%
    22:00 +14°C° 0 mm 1 m/s 740 mmHg 72%
    23:00 +13°C° 0 mm 1 m/s 740 mmHg 74%

    11 Junho, Quinta-feira

    Tempo Temperatura Precipitação Vento Pressão Humidade
    00:00 +13°C° 0 mm 1 m/s 740 mmHg 75%
    01:00 +12°C° 0 mm 2 m/s 740 mmHg 76%
    02:00 +12°C° 0 mm 2 m/s 740 mmHg 78%
    03:00 +12°C° 0 mm 2 m/s 740 mmHg 79%
    04:00 +12°C° 0 mm 2 m/s 739 mmHg 79%
    05:00 +12°C° 0 mm 3 m/s 739 mmHg 78%
    06:00 +13°C° 0 mm 3 m/s 739 mmHg 78%
    07:00 +13°C° 0.6 mm 3 m/s 738 mmHg 81%
    08:00 +13°C° 0.6 mm 3 m/s 738 mmHg 85%
    09:00 +13°C° 0.6 mm 3 m/s 738 mmHg 89%
    10:00 +13°C° 0.8 mm 4 m/s 738 mmHg 87%
    11:00 +14°C° 0.8 mm 5 m/s 738 mmHg 86%
    12:00 +15°C° 0.8 mm 7 m/s 738 mmHg 84%
    13:00 +15°C° 0.2 mm 6 m/s 738 mmHg 84%
    14:00 +15°C° 0.2 mm 6 m/s 738 mmHg 84%
    15:00 +15°C° 0.2 mm 5 m/s 738 mmHg 84%
    16:00 +15°C° 0.2 mm 6 m/s 737 mmHg 85%
    17:00 +15°C° 0.2 mm 6 m/s 737 mmHg 85%
    18:00 +14°C° 0.2 mm 6 m/s 737 mmHg 86%
    19:00 +14°C° 0.3 mm 5 m/s 737 mmHg 86%
    20:00 +14°C° 0.3 mm 5 m/s 737 mmHg 86%
    21:00 +14°C° 0.3 mm 4 m/s 737 mmHg 86%
    22:00 +14°C° 0.2 mm 4 m/s 737 mmHg 86%
    23:00 +14°C° 0.2 mm 3 m/s 737 mmHg 86%

    12 Junho, Sexta-feira

    Tempo Temperatura Precipitação Vento Pressão Humidade
    00:00 +14°C° 0.2 mm 3 m/s 737 mmHg 86%
    01:00 +13°C° 0 mm 3 m/s 737 mmHg 88%
    02:00 +14°C° 0 mm 2 m/s 737 mmHg 89%
    03:00 +14°C° 0 mm 2 m/s 737 mmHg 91%
    04:00 +14°C° 0 mm 2 m/s 737 mmHg 89%
    05:00 +15°C° 0 mm 2 m/s 737 mmHg 86%
    06:00 +16°C° 0 mm 2 m/s 737 mmHg 84%
    07:00 +18°C° 0 mm 2 m/s 737 mmHg 80%
    08:00 +19°C° 0 mm 2 m/s 737 mmHg 75%
    09:00 +20°C° 0 mm 2 m/s 737 mmHg 71%
    10:00 +21°C° 0 mm 2 m/s 737 mmHg 66%
    11:00 +23°C° 0 mm 2 m/s 736 mmHg 62%
    12:00 +24°C° 0 mm 1 m/s 736 mmHg 57%
    13:00 +25°C° 0 mm 1 m/s 736 mmHg 55%
    14:00 +26°C° 0 mm 1 m/s 735 mmHg 53%
    15:00 +26°C° 0 mm 1 m/s 735 mmHg 51%
    16:00 +26°C° 0.1 mm 1 m/s 735 mmHg 55%
    17:00 +26°C° 0.1 mm 1 m/s 735 mmHg 59%
    18:00 +25°C° 0.1 mm 1 m/s 735 mmHg 63%
    19:00 +23°C° 0.2 mm 1 m/s 735 mmHg 70%
    20:00 +21°C° 0.2 mm 1 m/s 735 mmHg 76%
    21:00 +20°C° 0.2 mm 1 m/s 735 mmHg 82%
    22:00 +19°C° 0 mm 1 m/s 735 mmHg 84%
    23:00 +19°C° 0 mm 1 m/s 735 mmHg 86%
    Mostrar mais